User: anonymous   Login
Location: Unspecified
(0.0000°N, 0.0000°E)
Time: 03:00:37
(UTC+00:00)
Language:

SRMSAT - Orbit

View from above orbital plane
View from above orbital plane
View from above satellite
View from above satellite

Ground track
Ground track

The orbit data is extracted from the following two-line orbital elements,

1 37841U 11058D   24057.54722791  .00000582  00000-0  17399-3 0  9990
2 37841  19.9713 111.9703 0011704 308.2114 200.8330 14.11044521638779
Epoch (UTC): 26 February 2024 13:08:00
Eccentricity: 0.0011704
inclination: 19.9713°
perigee height: 847 km
apogee height: 864 km
right ascension of ascending node: 111.9703°
argument of perigee: 308.2114°
revolutions per day: 14.11044521
mean anomaly at epoch: 200.8330°
orbit number at epoch: 63877

The dashed part of the orbit path shows where the satellite is in the earth's shadow,  

DLR